When you browse on this site, cookies collect data to enhance your experience and personalize the content and advertising you see.
Visit our Privacy Policy to learn more. By continuing to use the site, you agree to this use of cookies and data.

Hourly Weather Zapotlan de Juarez

Today, 9 July, Thursday

Time Temperature Precipitation Wind Pressure Humidity
00:00 +15°C° 0 mm 1 mps 577 mmHg 80%
01:00 +15°C° 0 mm 1 mps 576 mmHg 82%
02:00 +14°C° 0 mm 1 mps 576 mmHg 85%
03:00 +14°C° 0 mm 1 mps 576 mmHg 85%
04:00 +14°C° 0 mm 1 mps 575 mmHg 84%
05:00 +13°C° 0 mm 0 mps 575 mmHg 84%
06:00 +14°C° 0 mm 0 mps 576 mmHg 76%
07:00 +16°C° 0 mm 0 mps 577 mmHg 68%
08:00 +18°C° 0 mm 0 mps 578 mmHg 60%
09:00 +21°C° 0.1 mm 1 mps 579 mmHg 55%
10:00 +23°C° 0.1 mm 1 mps 579 mmHg 49%
11:00 +24°C° 0.1 mm 1 mps 580 mmHg 43%
12:00 +24°C° 1.3 mm 2 mps 579 mmHg 47%
13:00 +22°C° 1.3 mm 3 mps 579 mmHg 51%
14:00 +22°C° 1.3 mm 4 mps 578 mmHg 54%
15:00 +21°C° 1.4 mm 4 mps 578 mmHg 59%
16:00 +20°C° 1.4 mm 4 mps 577 mmHg 63%
17:00 +19°C° 1.4 mm 3 mps 577 mmHg 68%
18:00 +17°C° 0.6 mm 3 mps 577 mmHg 72%
19:00 +16°C° 0.6 mm 2 mps 577 mmHg 77%
20:00 +15°C° 0.6 mm 1 mps 577 mmHg 81%
21:00 +14°C° 0 mm 1 mps 577 mmHg 81%
22:00 +13°C° 0 mm 0 mps 577 mmHg 81%
23:00 +13°C° 0 mm 0 mps 577 mmHg 80%

Tomorrow, 10 July, Friday

Time Temperature Precipitation Wind Pressure Humidity
00:00 +13°C° 0 mm 0 mps 577 mmHg 80%
01:00 +13°C° 0 mm 0 mps 576 mmHg 80%
02:00 +13°C° 0 mm 0 mps 576 mmHg 79%
03:00 +12°C° 0 mm 0 mps 576 mmHg 79%
04:00 +12°C° 0 mm 0 mps 576 mmHg 79%
05:00 +12°C° 0 mm 0 mps 576 mmHg 80%
06:00 +14°C° 0 mm 0 mps 577 mmHg 72%
07:00 +15°C° 0 mm 0 mps 578 mmHg 65%
08:00 +19°C° 0 mm 1 mps 579 mmHg 57%
09:00 +21°C° 0 mm 1 mps 580 mmHg 50%
10:00 +23°C° 0 mm 2 mps 580 mmHg 44%
11:00 +25°C° 0 mm 3 mps 581 mmHg 37%
12:00 +25°C° 0 mm 4 mps 581 mmHg 38%
13:00 +25°C° 0 mm 5 mps 580 mmHg 39%
14:00 +24°C° 0 mm 6 mps 580 mmHg 41%
15:00 +23°C° 0.1 mm 6 mps 580 mmHg 47%
16:00 +22°C° 0.1 mm 6 mps 579 mmHg 53%
17:00 +21°C° 0.1 mm 6 mps 578 mmHg 59%
18:00 +19°C° 0.1 mm 5 mps 578 mmHg 67%
19:00 +17°C° 0.1 mm 4 mps 578 mmHg 75%
20:00 +14°C° 0.1 mm 3 mps 577 mmHg 83%
21:00 +15°C° 0 mm 2 mps 577 mmHg 85%
22:00 +14°C° 0 mm 2 mps 577 mmHg 87%
23:00 +14°C° 0 mm 2 mps 577 mmHg 89%

Day after tomorrow, 11 July, Saturday

Time Temperature Precipitation Wind Pressure Humidity
00:00 +13°C° 0 mm 2 mps 577 mmHg 90%
01:00 +13°C° 0 mm 1 mps 576 mmHg 90%
02:00 +12°C° 0 mm 1 mps 576 mmHg 91%
03:00 +12°C° 0 mm 1 mps 576 mmHg 91%
04:00 +12°C° 0 mm 1 mps 576 mmHg 91%
05:00 +12°C° 0 mm 1 mps 575 mmHg 91%
06:00 +14°C° 0 mm 1 mps 577 mmHg 80%
07:00 +15°C° 0 mm 1 mps 578 mmHg 69%
08:00 +17°C° 0 mm 2 mps 579 mmHg 58%
09:00 +19°C° 0 mm 2 mps 580 mmHg 51%
10:00 +21°C° 0 mm 3 mps 580 mmHg 44%
11:00 +23°C° 0 mm 4 mps 581 mmHg 37%
12:00 +23°C° 0 mm 4 mps 580 mmHg 40%
13:00 +23°C° 0 mm 5 mps 580 mmHg 43%
14:00 +23°C° 0 mm 6 mps 580 mmHg 45%
15:00 +22°C° 0.8 mm 6 mps 579 mmHg 54%
16:00 +20°C° 0.8 mm 5 mps 578 mmHg 62%
17:00 +19°C° 0.8 mm 5 mps 577 mmHg 71%
18:00 +18°C° 1 mm 4 mps 577 mmHg 77%
19:00 +15°C° 1 mm 4 mps 577 mmHg 83%
20:00 +14°C° 1 mm 3 mps 577 mmHg 88%
21:00 +14°C° 0.1 mm 3 mps 577 mmHg 89%
22:00 +14°C° 0.1 mm 2 mps 577 mmHg 89%
23:00 +14°C° 0.1 mm 2 mps 577 mmHg 90%

12 July, Sunday

Time Temperature Precipitation Wind Pressure Humidity
00:00 +14°C° 0 mm 1 mps 577 mmHg 91%
01:00 +13°C° 0 mm 1 mps 576 mmHg 92%
02:00 +13°C° 0 mm 1 mps 576 mmHg 93%
03:00 +13°C° 0 mm 1 mps 576 mmHg 93%
04:00 +12°C° 0 mm 1 mps 576 mmHg 93%
05:00 +11°C° 0 mm 0 mps 576 mmHg 93%
06:00 +13°C° 0 mm 0 mps 577 mmHg 84%
07:00 +15°C° 0 mm 0 mps 578 mmHg 74%
08:00 +17°C° 0 mm 0 mps 579 mmHg 65%
09:00 +21°C° 0 mm 1 mps 579 mmHg 57%
10:00 +21°C° 0 mm 2 mps 580 mmHg 49%
11:00 +24°C° 0 mm 3 mps 580 mmHg 41%
12:00 +23°C° 0.1 mm 4 mps 580 mmHg 44%
13:00 +23°C° 0.1 mm 5 mps 579 mmHg 46%
14:00 +23°C° 0.1 mm 6 mps 578 mmHg 49%
15:00 +22°C° 0.3 mm 6 mps 578 mmHg 52%
16:00 +21°C° 0.3 mm 6 mps 578 mmHg 56%
17:00 +20°C° 0.3 mm 6 mps 577 mmHg 59%
18:00 +17°C° 0.1 mm 5 mps 577 mmHg 67%
19:00 +17°C° 0.1 mm 4 mps 577 mmHg 75%
20:00 +14°C° 0.1 mm 3 mps 577 mmHg 83%
21:00 +14°C° 0 mm 2 mps 577 mmHg 84%
22:00 +14°C° 0 mm 2 mps 577 mmHg 85%
23:00 +13°C° 0 mm 1 mps 576 mmHg 87%

13 July, Monday

Time Temperature Precipitation Wind Pressure Humidity
00:00 +13°C° 0 mm 1 mps 576 mmHg 87%
01:00 +12°C° 0 mm 1 mps 575 mmHg 87%
02:00 +11°C° 0 mm 0 mps 575 mmHg 86%
03:00 +10°C° 0 mm 0 mps 575 mmHg 86%
04:00 +10°C° 0 mm 0 mps 575 mmHg 86%
05:00 +10°C° 0 mm 0 mps 575 mmHg 86%
06:00 +12°C° 0 mm 0 mps 576 mmHg 75%
07:00 +15°C° 0 mm 1 mps 577 mmHg 65%
08:00 +18°C° 0 mm 1 mps 579 mmHg 55%
09:00 +20°C° 0 mm 1 mps 579 mmHg 49%
10:00 +21°C° 0 mm 2 mps 580 mmHg 42%
11:00 +24°C° 0 mm 2 mps 580 mmHg 36%
12:00 +24°C° 0 mm 3 mps 580 mmHg 36%
13:00 +25°C° 0 mm 4 mps 580 mmHg 37%
14:00 +25°C° 0 mm 5 mps 580 mmHg 37%
15:00 +23°C° 0.1 mm 5 mps 579 mmHg 44%
16:00 +22°C° 0.1 mm 6 mps 578 mmHg 50%
17:00 +20°C° 0.1 mm 6 mps 578 mmHg 57%
18:00 +19°C° 0 mm 5 mps 577 mmHg 64%
19:00 +17°C° 0 mm 3 mps 577 mmHg 71%
20:00 +15°C° 0 mm 2 mps 577 mmHg 78%
21:00 +15°C° 0 mm 2 mps 577 mmHg 79%
22:00 +14°C° 0 mm 1 mps 577 mmHg 80%
23:00 +14°C° 0 mm 1 mps 577 mmHg 81%

14 July, Tuesday

Time Temperature Precipitation Wind Pressure Humidity
00:00 +13°C° 0 mm 1 mps 576 mmHg 82%
01:00 +12°C° 0 mm 0 mps 576 mmHg 83%
02:00 +12°C° 0 mm 0 mps 575 mmHg 84%
03:00 +12°C° 0 mm 0 mps 575 mmHg 84%
04:00 +11°C° 0 mm 0 mps 575 mmHg 84%
05:00 +11°C° 0 mm 0 mps 575 mmHg 85%
06:00 +13°C° 0 mm 0 mps 576 mmHg 77%
07:00 +16°C° 0 mm 0 mps 578 mmHg 69%
08:00 +18°C° 0 mm 0 mps 579 mmHg 61%
09:00 +22°C° 0 mm 1 mps 579 mmHg 53%
10:00 +23°C° 0 mm 2 mps 580 mmHg 46%
11:00 +25°C° 0 mm 2 mps 580 mmHg 38%
12:00 +25°C° 0 mm 3 mps 580 mmHg 38%
13:00 +26°C° 0 mm 4 mps 580 mmHg 37%
14:00 +26°C° 0 mm 5 mps 580 mmHg 37%
15:00 +25°C° 0.4 mm 5 mps 579 mmHg 46%
16:00 +22°C° 0.4 mm 5 mps 578 mmHg 55%
17:00 +21°C° 0.4 mm 5 mps 577 mmHg 64%
18:00 +19°C° 0.7 mm 4 mps 577 mmHg 71%
19:00 +18°C° 0.7 mm 3 mps 577 mmHg 78%
20:00 +16°C° 0.7 mm 3 mps 577 mmHg 86%
21:00 +16°C° 0 mm 2 mps 577 mmHg 87%
22:00 +15°C° 0 mm 2 mps 577 mmHg 89%
23:00 +14°C° 0 mm 1 mps 577 mmHg 91%
Show more